Terug naar catalogus

FENGYUN 1C DEB

ActiefSSO
NORAD 31755·DEBRIS·🇨🇳 China

Gelanceerd May 10, 1999 vanaf Taiyuan Satellite Launch Center

Loading…

Volgende Passages (komende 24 uur)

TLE

VersSource: Space-Track

Epoch: Sep 14, 2026, 04:11 UTC

1 31755U 99025CFE 26257.17442221  .00000392  00000-0  21589-3 0  9993
2 31755  98.8036 247.4342 0187836 324.9992  95.0588 14.08640093675495

Volg FENGYUN 1C DEB in realtime met AllMySat

Download on the App Store